GW3555 Weather Reports


Display with metric or nautical units.
time (UTC)temp
F
wind
direction
speed
MPH
gust
MPH
rain 1hr
in
rain 24hr
in
rain mn
in
humidity
%
barometer
mb
20260902102029 56 230 2.0 4.0 0.00 0.00 0.00 88 1006.7
20260902101633 56 215 2.0 3.0 0.00 0.00 0.00 89 1006.6
20260902101040 56 252 0.0 4.0 0.00 0.00 0.00 89 1006.6
20260902100521 56 223 2.0 4.0 0.00 0.00 0.00 89 1006.7
20260902100119 56 240 2.0 4.0 0.00 0.00 0.00 90 1006.9
20260902095520 56 260 1.0 3.0 0.00 0.00 0.00 90 1006.9
20260902095043 56 229 1.0 3.0 0.00 0.00 0.00 90 1007.0
20260902094615 56 227 2.0 3.0 0.00 0.00 0.00 90 1007.1
20260902094030 56 244 1.0 3.0 0.00 0.00 0.00 90 1007.1
20260902093524 56 256 1.0 3.0 0.00 0.00 0.00 89 1007.1
20260902093138 56 241 1.0 4.0 0.00 0.00 0.00 88 1007.2
20260902092532 57 201 1.0 4.0 0.00 0.00 0.00 87 1007.3
20260902092037 57 227 1.0 3.0 0.00 0.00 0.00 86 1007.2
20260902091630 58 224 1.0 3.0 0.00 0.00 0.00 85 1007.4
20260902091031 58 214 1.0 3.0 0.00 0.00 0.00 82 1007.4
20260902090518 58 198 0.0 2.0 0.00 0.00 0.00 80 1007.6
20260902090123 58 205 0.0 3.0 0.00 0.00 0.00 81 1007.6
20260902085547 58 223 1.0 3.0 0.00 0.00 0.00 81 1007.6
20260902085036 58 232 0.0 0.0 0.00 0.00 0.00 81 1007.5
20260902084552 58 241 0.0 6.0 0.00 0.00 0.00 82 1007.4
20260902084024 58 307 1.0 6.0 0.00 0.00 0.00 81 1007.4
20260902083520 58 225 1.0 3.0 0.00 0.00 0.00 82 1007.5
20260902083133 58 198 0.0 1.0 0.00 0.00 0.00 82 1007.5
20260902082527 58 225 0.0 1.0 0.00 0.00 0.00 83 1007.5
20260902082028 58 240 0.0 0.0 0.00 0.00 0.00 83 1007.6
20260902081558 58 235 0.0 3.0 0.00 0.00 0.00 83 1007.5
20260902081040 58 250 0.0 3.0 0.00 0.00 0.00 83 1007.6
20260902080522 57 192 0.0 3.0 0.00 0.00 0.00 84 1007.6
20260902080135 57 213 1.0 3.0 0.00 0.00 0.00 84 1007.6
20260902075535 57 229 0.0 0.0 0.00 0.00 0.00 85 1007.4
20260902075031 57 238 0.0 0.0 0.00 0.00 0.00 85 1007.5
20260902074637 57 236 0.0 0.0 0.00 0.00 0.00 86 1007.5
20260902074041 57 236 0.0 0.0 0.00 0.00 0.00 86 1007.5
20260902073531 57 271 0.0 0.0 0.00 0.00 0.00 86 1007.5
20260902073113 57 271 0.0 0.0 0.00 0.00 0.00 86 1007.5
20260902072518 57 271 0.0 0.0 0.00 0.00 0.00 86 1007.4
20260902072044 57 271 0.0 0.0 0.00 0.00 0.00 85 1007.3
20260902071553 57 271 0.0 0.0 0.00 0.00 0.00 86 1007.3
20260902071030 57 271 0.0 2.0 0.00 0.00 0.00 85 1007.4
20260902070546 57 272 0.0 3.0 0.00 0.00 0.00 86 1007.4
20260902070127 57 275 1.0 3.0 0.00 0.00 0.00 85 1007.4
20260902065524 58 253 0.0 0.0 0.00 0.00 0.00 85 1007.4
20260902065030 58 249 0.0 2.0 0.00 0.00 0.00 84 1007.4
20260902064634 58 278 0.0 2.0 0.00 0.00 0.00 83 1007.5
20260902064024 59 304 0.0 2.0 0.00 0.00 0.00 82 1007.5
20260902063524 59 303 0.0 3.0 0.00 0.00 0.00 81 1007.5
20260902063124 59 266 1.0 3.0 0.00 0.00 0.00 80 1007.5
20260902062539 59 261 0.0 3.0 0.00 0.00 0.00 81 1007.4
20260902062026 60 261 0.0 3.0 0.00 0.00 0.00 80 1007.4
20260902061602 60 256 0.0 3.0 0.00 0.00 0.00 77 1007.5
20260902061021 60 308 1.0 3.0 0.00 0.00 0.00 76 1007.5
20260902060530 60 252 2.0 3.0 0.00 0.00 0.00 75 1007.6
20260902060125 60 248 0.0 3.0 0.00 0.00 0.00 75 1007.6
20260902055536 60 237 0.0 2.0 0.00 0.00 0.00 75 1007.6
20260902055024 61 295 0.0 3.0 0.00 0.00 0.00 75 1007.5
20260902054603 61 253 1.0 3.0 0.00 0.00 0.00 73 1007.5
20260902054025 61 252 1.0 3.0 0.00 0.00 0.00 72 1007.7
20260902053518 61 319 1.0 3.0 0.00 0.00 0.00 72 1007.7
20260902053133 61 264 1.0 3.0 0.00 0.00 0.00 73 1007.7
20260902052526 61 213 0.0 3.0 0.00 0.00 0.00 73 1007.7
20260902052027 61 176 1.0 3.0 0.00 0.00 0.00 73 1007.7
20260902051623 62 261 1.0 4.0 0.00 0.00 0.00 74 1007.7
20260902051019 62 215 2.0 4.0 0.00 0.00 0.00 74 1007.8
20260902050537 63 220 0.0 3.0 0.00 0.00 0.00 72 1007.7
20260902050142 63 281 0.0 3.0 0.00 0.00 0.00 69 1007.9
20260902045533 64 290 0.0 3.0 0.00 0.00 0.00 67 1007.9
20260902045037 64 338 1.0 3.0 0.00 0.00 0.00 65 1007.5
20260902044633 65 313 0.0 4.0 0.00 0.00 0.00 63 1007.3
20260902044021 65 331 2.0 4.0 0.00 0.00 0.00 59 1007.4
20260902043536 65 253 0.0 2.0 0.00 0.00 0.00 59 1007.2
20260902043132 65 227 0.0 3.0 0.00 0.00 0.00 61 1007.2
20260902042530 65 229 1.0 4.0 0.00 0.00 0.00 59 1007.2
20260902042050 65 268 0.0 5.0 0.00 0.00 0.00 59 1007.4
20260902041638 65 233 2.0 5.0 0.00 0.00 0.00 61 1007.2
20260902041021 66 244 1.0 3.0 0.00 0.00 0.00 61 1007.1
20260902040526 67 240 1.0 3.0 0.00 0.00 0.00 55 1007.2
20260902040217 68 304 1.0 2.0 0.00 0.00 0.00 55 1007.4
20260902035533 68 67 0.0 7.0 0.00 0.00 0.00 51 1007.5
20260902035051 69 118 1.0 10.0 0.00 0.00 0.00 46 1007.3
20260902034628 70 90 4.0 10.0 0.00 0.00 0.00 41 1007.2
20260902034025 69 287 1.0 5.0 0.00 0.00 0.00 40 1007.3
20260902033524 69 256 0.0 2.0 0.00 0.00 0.00 40 1006.7
20260902033141 69 266 0.0 1.0 0.00 0.00 0.00 41 1006.4
20260902032542 69 223 0.0 0.0 0.00 0.00 0.00 40 1006.2
20260902032032 69 228 0.0 1.0 0.00 0.00 0.00 40 1006.1
20260902031609 70 254 0.0 2.0 0.00 0.00 0.00 40 1006.0
20260902031029 70 325 0.0 2.0 0.00 0.00 0.00 41 1005.8
20260902030550 70 33 0.0 1.0 0.00 0.00 0.00 40 1005.8
20260902030145 71 235 0.0 1.0 0.00 0.00 0.00 39 1005.8
20260902025534 71 235 0.0 1.0 0.00 0.00 0.00 39 1005.7
20260902025038 71 246 0.0 1.0 0.00 0.00 0.00 39 1005.6
20260902024617 71 223 0.0 1.0 0.00 0.00 0.00 39 1005.7
20260902024025 72 169 0.0 1.0 0.00 0.00 0.00 39 1005.6
20260902023532 72 167 0.0 1.0 0.00 0.00 0.00 39 1005.4
20260902023124 72 167 0.0 1.0 0.00 0.00 0.00 39 1005.4
20260902022526 73 157 0.0 1.0 0.00 0.00 0.00 38 1005.4
20260902022027 73 157 0.0 1.0 0.00 0.00 0.00 37 1005.4
20260902021628 73 157 0.0 2.0 0.00 0.00 0.00 36 1005.3
20260902021035 74 143 0.0 3.0 0.00 0.00 0.00 36 1005.1
20260902020529 74 136 1.0 3.0 0.00 0.00 0.00 35 1005.1
20260902020135 75 147 0.0 3.0 0.00 0.00 0.00 34 1005.2
20260902015537 75 167 0.0 4.0 0.00 0.00 0.00 35 1005.2
20260902015041 76 92 0.0 4.0 0.00 0.00 0.00 34 1005.0
20260902014643 76 121 0.0 4.0 0.00 0.00 0.00 34 1005.0
20260902014041 76 136 2.0 4.0 0.00 0.00 0.00 33 1005.1
20260902013519 76 192 2.0 6.0 0.00 0.00 0.00 33 1005.1
20260902013133 77 161 2.0 6.0 0.00 0.00 0.00 32 1005.1
20260902012521 77 121 1.0 5.0 0.00 0.00 0.00 32 1005.3
20260902012037 77 130 1.0 5.0 0.00 0.00 0.00 32 1005.2
20260902011605 78 110 1.0 5.0 0.00 0.00 0.00 32 1005.2
20260902011024 78 309 0.0 5.0 0.00 0.00 0.00 31 1005.1
20260902010530 79 197 0.0 5.0 0.00 0.00 0.00 31 1005.2
20260902010121 79 240 0.0 6.0 0.00 0.00 0.00 30 1005.2
20260902005524 80 229 1.0 6.0 0.00 0.00 0.00 30 1005.2
20260902005025 80 347 0.0 3.0 0.00 0.00 0.00 30 1005.2
20260902004610 80 114 1.0 3.0 0.00 0.00 0.00 29 1005.1
20260902004038 81 333 0.0 7.0 0.00 0.00 0.00 29 1005.2
20260902003537 81 313 2.0 7.0 0.00 0.00 0.00 28 1005.3
20260902003147 81 261 1.0 8.0 0.00 0.00 0.00 28 1005.2
20260902002532 82 98 2.0 8.0 0.00 0.00 0.00 28 1005.4
20260902002037 82 159 1.0 5.0 0.00 0.00 0.00 28 1005.4
20260902001626 83 154 2.0 5.0 0.00 0.00 0.00 27 1005.4
20260902001037 83 190 1.0 5.0 0.00 0.00 0.00 27 1005.5
20260902000531 84 328 2.0 5.0 0.00 0.00 0.00 27 1005.5
20260902000201 83 87 1.0 5.0 0.00 0.00 0.00 27 1005.5
20260901235542 83 230 2.0 5.0 0.00 0.00 0.00 27 1005.5
20260901235021 83 180 0.0 8.0 0.00 0.00 0.00 27 1005.4
20260901234650 82 32 2.0 8.0 0.00 0.00 0.00 26 1005.6
20260901234032 82 213 1.0 7.0 0.00 0.00 0.00 28 1005.5
20260901233542 82 192 2.0 7.0 0.00 0.00 0.00 27 1005.6
20260901233126 82 71 1.0 7.0 0.00 0.00 0.00 27 1005.6
20260901232533 82 217 1.0 5.0 0.00 0.00 0.00 28 1005.6
20260901232030 83 117 3.0 6.0 0.00 0.00 0.00 26 1005.7
20260901231628 83 352 1.0 4.0 0.00 0.00 0.00 26 1005.8
20260901231032 83 259 0.0 5.0 0.00 0.00 0.00 27 1005.8
20260901230541 83 46 1.0 5.0 0.00 0.00 0.00 26 1005.8
20260901230157 83 44 1.0 5.0 0.00 0.00 0.00 26 1005.8
20260901225525 82 99 1.0 4.0 0.00 0.00 0.00 27 1005.9
20260901225037 82 360 0.0 5.0 0.00 0.00 0.00 27 1005.7
20260901224656 81 62 1.0 5.0 0.00 0.00 0.00 26 1005.9
20260901224037 81 188 0.0 5.0 0.00 0.00 0.00 27 1005.8
20260901223533 82 54 1.0 5.0 0.00 0.00 0.00 26 1005.8
20260901223153 82 319 0.0 3.0 0.00 0.00 0.00 26 1005.8
20260901222527 82 174 0.0 7.0 0.00 0.00 0.00 26 1005.8
20260901222042 82 207 1.0 5.0 0.00 0.00 0.00 26 1005.8
20260901221624 82 28 0.0 5.0 0.00 0.00 0.00 26 1005.7
20260901221025 82 360 0.0 4.0 0.00 0.00 0.00 25 1005.8
20260901220524 83 311 1.0 4.0 0.00 0.00 0.00 25 1005.7
20260901220155 83 335 0.0 4.0 0.00 0.00 0.00 25 1005.8
20260901215524 83 15 0.0 6.0 0.00 0.00 0.00 25 1005.9
20260901215035 83 40 2.0 6.0 0.00 0.00 0.00 25 1005.8
20260901214619 84 24 1.0 5.0 0.00 0.00 0.00 25 1005.8
20260901214033 83 352 1.0 5.0 0.00 0.00 0.00 25 1005.8
20260901213525 83 155 1.0 4.0 0.00 0.00 0.00 25 1005.8
20260901213140 83 57 1.0 4.0 0.00 0.00 0.00 24 1006.0
20260901212533 83 336 1.0 4.0 0.00 0.00 0.00 24 1006.0
20260901212025 84 306 1.0 6.0 0.00 0.00 0.00 24 1006.1
20260901211621 84 287 1.0 6.0 0.00 0.00 0.00 24 1006.3
20260901211033 84 130 1.0 8.0 0.00 0.00 0.00 24 1006.5
20260901210543 85 238 2.0 8.0 0.00 0.00 0.00 23 1006.4
20260901210219 85 140 1.0 5.0 0.00 0.00 0.00 24 1006.4
20260901205536 84 27 1.0 6.0 0.00 0.00 0.00 25 1006.5
20260901205035 84 137 2.0 5.0 0.00 0.00 0.00 25 1006.6
20260901204634 84 159 1.0 5.0 0.00 0.00 0.00 26 1006.6
20260901204043 83 85 1.0 3.0 0.00 0.00 0.00 26 1006.6
20260901203538 83 74 1.0 4.0 0.00 0.00 0.00 26 1006.6
20260901203209 83 38 2.0 4.0 0.00 0.00 0.00 26 1006.6
20260901202545 83 107 1.0 6.0 0.00 0.00 0.00 27 1006.8
20260901202043 82 218 1.0 6.0 0.00 0.00 0.00 26 1006.9
20260901201636 82 328 1.0 4.0 0.00 0.00 0.00 27 1006.9
20260901201026 83 92 1.0 3.0 0.00 0.00 0.00 27 1006.9
20260901200526 82 55 1.0 5.0 0.00 0.00 0.00 29 1007.1
20260901200229 82 57 1.0 5.0 0.00 0.00 0.00 28 1007.1
20260901195537 82 189 1.0 5.0 0.00 0.00 0.00 29 1007.0
20260901195034 81 107 0.0 7.0 0.00 0.00 0.00 29 1007.1
20260901194633 81 241 2.0 7.0 0.00 0.00 0.00 29 1007.1
20260901194029 81 340 2.0 6.0 0.00 0.00 0.00 28 1007.2
20260901193538 81 137 2.0 7.0 0.00 0.00 0.00 29 1007.3
20260901193126 80 107 2.0 8.0 0.00 0.00 0.00 28 1007.5
20260901192532 80 101 1.0 8.0 0.00 0.00 0.00 28 1007.5
20260901192034 81 155 2.0 6.0 0.00 0.00 0.00 28 1007.7
20260901191657 80 111 2.0 5.0 0.00 0.00 0.00 29 1007.8
20260901191037 80 176 2.0 4.0 0.00 0.00 0.00 30 1007.9
20260901190539 79 44 1.0 3.0 0.00 0.00 0.00 32 1008.0
20260901190234 78 24 0.0 4.0 0.00 0.00 0.00 34 1008.1
20260901185526 78 22 2.0 4.0 0.00 0.00 0.00 34 1008.1
20260901185025 77 51 1.0 3.0 0.00 0.00 0.00 36 1008.0
20260901184718 76 12 1.0 3.0 0.00 0.00 0.00 36 1008.1
20260901184041 76 69 1.0 3.0 0.00 0.00 0.00 37 1008.2
20260901183544 75 81 0.0 3.0 0.00 0.00 0.00 36 1008.2
20260901183227 75 109 0.0 3.0 0.00 0.00 0.00 36 1008.2
20260901182524 74 153 0.0 2.0 0.00 0.00 0.00 37 1008.3
20260901182033 74 107 1.0 4.0 0.00 0.00 0.00 37 1008.5
20260901181646 74 21 2.0 4.0 0.00 0.00 0.00 41 1008.6
20260901181050 73 5 1.0 3.0 0.00 0.00 0.00 41 1008.4
20260901180532 72 76 0.0 2.0 0.00 0.00 0.00 42 1008.6
20260901180227 72 53 0.0 3.0 0.00 0.00 0.00 44 1008.6
20260901175540 71 173 1.0 3.0 0.00 0.00 0.00 44 1008.7
20260901175030 70 120 0.0 2.0 0.00 0.00 0.00 46 1008.9
20260901174649 70 42 0.0 0.0 0.00 0.00 0.00 45 1009.0
20260901174039 71 43 0.0 0.0 0.00 0.00 0.00 46 1009.1
20260901173533 71 43 0.0 2.0 0.00 0.00 0.00 44 1009.2
20260901173217 70 161 0.0 3.0 0.00 0.00 0.00 45 1009.1
20260901172519 70 155 0.0 3.0 0.00 0.00 0.00 45 1009.0
20260901172045 69 139 1.0 2.0 0.00 0.00 0.00 44 1009.2
20260901171654 69 117 0.0 3.0 0.00 0.00 0.00 44 1009.2
20260901171023 68 171 0.0 3.0 0.00 0.00 0.00 45 1009.2
20260901170536 67 172 0.0 4.0 0.00 0.00 0.00 48 1009.5
20260901170202 67 174 1.0 5.0 0.00 0.00 0.00 48 1009.4
20260901165525 67 35 0.0 0.0 0.00 0.00 0.00 49 1009.4
20260901165031 66 128 0.0 0.0 0.00 0.00 0.00 50 1009.6
20260901164638 65 32 0.0 0.0 0.00 0.00 0.00 52 1009.7
20260901164025 64 32 0.0 0.0 0.00 0.00 0.00 50 1009.7
20260901163537 64 32 0.0 0.0 0.00 0.00 0.00 52 1009.8
20260901163134 63 37 0.0 0.0 0.00 0.00 0.00 53 1009.7
20260901162544 63 51 0.0 0.0 0.00 0.00 0.00 55 1009.7
20260901162028 62 344 0.0 2.0 0.00 0.00 0.00 56 1009.7
20260901161632 62 343 0.0 2.0 0.00 0.00 0.00 54 1009.8
20260901161031 61 71 0.0 0.0 0.00 0.00 0.00 56 1009.8
20260901160532 61 16 0.0 0.0 0.00 0.00 0.00 56 1009.8
20260901160129 60 337 0.0 0.0 0.00 0.00 0.00 57 1009.9
20260901155532 60 329 0.0 0.0 0.00 0.00 0.00 57 1010.0
20260901155033 59 329 0.0 0.0 0.00 0.00 0.00 57 1010.1
20260901154632 59 327 0.0 0.0 0.00 0.00 0.00 60 1010.1
20260901154049 58 329 0.0 2.0 0.00 0.00 0.00 61 1010.1
20260901153530 58 321 1.0 2.0 0.00 0.00 0.00 63 1010.0
20260901153129 57 276 0.0 0.0 0.00 0.00 0.00 63 1009.9
20260901152536 56 276 0.0 0.0 0.00 0.00 0.00 64 1010.0
20260901152028 56 276 0.0 0.0 0.00 0.00 0.00 68 1010.0
20260901151625 56 276 0.0 0.0 0.00 0.00 0.00 68 1010.2
20260901151037 56 276 0.0 0.0 0.00 0.00 0.00 68 1010.3
20260901150620 56 275 0.0 0.0 0.00 0.00 0.00 68 1010.4
20260901150141 56 275 0.0 0.0 0.00 0.00 0.00 68 1010.3
20260901145537 56 275 0.0 0.0 0.00 0.00 0.00 67 1010.3
20260901145039 55 275 0.0 0.0 0.00 0.00 0.00 67 1010.3
20260901144630 55 275 0.0 0.0 0.00 0.00 0.00 65 1010.4
20260901144031 55 275 0.0 0.0 0.00 0.00 0.00 64 1010.4
20260901143621 55 275 0.0 0.0 0.00 0.00 0.00 65 1010.4
20260901143209 55 275 0.0 0.0 0.00 0.00 0.00 66 1010.3
20260901142524 54 275 0.0 0.0 0.00 0.00 0.00 66 1010.3
20260901142026 54 275 0.0 0.0 0.00 0.00 0.00 68 1010.3
20260901141655 54 275 0.0 0.0 0.00 0.00 0.00 68 1010.3
20260901141025 53 275 0.0 0.0 0.00 0.00 0.00 68 1010.2
20260901140524 53 296 0.0 0.0 0.00 0.00 0.00 68 1010.2
20260901140159 53 296 0.0 0.0 0.00 0.00 0.00 67 1010.2
20260901135550 53 296 0.0 0.0 0.00 0.00 0.00 66 1010.3
20260901135036 53 296 0.0 2.0 0.00 0.00 0.00 66 1010.1
20260901134640 53 273 0.0 2.0 0.00 0.00 0.00 68 1009.9
20260901134041 53 263 0.0 2.0 0.00 0.00 0.00 68 1010.1
20260901133542 53 277 0.0 2.0 0.00 0.00 0.00 68 1010.1
20260901133127 53 265 0.0 3.0 0.00 0.00 0.00 67 1010.0
20260901132543 53 249 0.0 3.0 0.00 0.00 0.00 67 1010.0
20260901132042 53 262 1.0 4.0 0.00 0.00 0.00 67 1010.1
20260901131636 53 283 2.0 4.0 0.00 0.00 0.00 67 1010.2
20260901131023 53 277 1.0 3.0 0.00 0.00 0.00 67 1010.2
20260901130546 52 276 1.0 4.0 0.00 0.00 0.00 67 1010.2
20260901130142 53 283 1.0 4.0 0.00 0.00 0.00 67 1010.2
20260901125546 53 294 1.0 2.0 0.00 0.00 0.00 66 1010.2
20260901125033 53 279 1.0 3.0 0.00 0.00 0.00 66 1010.2
20260901124644 53 257 1.0 4.0 0.00 0.00 0.00 66 1010.3
20260901124044 53 265 1.0 3.0 0.00 0.00 0.00 66 1010.3
20260901123530 53 280 1.0 4.0 0.00 0.00 0.00 66 1010.3
20260901123218 54 263 1.0 4.0 0.00 0.00 0.00 66 1010.4
20260901122529 53 257 1.0 3.0 0.00 0.00 0.00 66 1010.5
20260901122037 53 256 2.0 4.0 0.00 0.00 0.00 66 1010.6
20260901121651 53 249 2.0 4.0 0.00 0.00 0.00 66 1010.6
20260901121047 53 248 2.0 4.0 0.00 0.00 0.00 66 1010.8
20260901120524 53 246 0.0 0.0 0.00 0.00 0.00 66 1010.8
20260901120156 53 267 0.0 0.0 0.00 0.00 0.00 66 1010.8
20260901115540 53 270 0.0 2.0 0.00 0.00 0.00 65 1010.8
20260901115031 53 274 0.0 3.0 0.00 0.00 0.00 65 1010.9
20260901114626 53 286 0.0 3.0 0.00 0.00 0.00 65 1010.9
20260901114028 53 278 0.0 1.0 0.00 0.00 0.00 65 1010.8
20260901113526 54 275 0.0 2.0 0.00 0.00 0.00 65 1010.8
20260901113129 54 255 0.0 3.0 0.00 0.00 0.00 65 1010.9
20260901112525 54 252 1.0 3.0 0.00 0.00 0.00 65 1010.9
20260901112037 54 244 1.0 3.0 0.00 0.00 0.00 65 1010.9
20260901111639 54 244 2.0 4.0 0.00 0.00 0.00 64 1011.0
20260901111028 54 241 1.0 3.0 0.00 0.00 0.00 64 1011.0
20260901110533 54 236 1.0 2.0 0.00 0.00 0.00 64 1010.9
20260901110202 54 250 1.0 2.0 0.00 0.00 0.00 64 1011.1
20260901105600 54 273 0.0 2.0 0.00 0.00 0.00 64 1011.0
20260901105028 55 273 1.0 2.0 0.00 0.00 0.00 64 1011.0
20260901104700 55 278 0.0 1.0 0.00 0.00 0.00 63 1011.0
20260901104049 55 277 0.0 2.0 0.00 0.00 0.00 62 1011.0
20260901103531 55 252 1.0 3.0 0.00 0.00 0.00 62 1011.0
20260901103134 55 246 1.0 3.0 0.00 0.00 0.00 63 1011.0
20260901102551 55 267 0.0 3.0 0.00 0.00 0.00 62 1010.9